Back to catalog

FENGYUN 1C DEB

LostPO
NORAD 36205·DEBRIS·🇨🇳 China

Launched May 10, 1999 from Taiyuan Satellite Launch Center

Loading…

Next Passes (next 24 hours)

TLE

StaleSource: Space-Track

Epoch: Oct 22, 2011, 10:51 UTC

1 36205U 99025DUE 11295.45276802  .00001375  00000-0  74992-3 0  9993
2 36205  99.4200  34.7726 0093380 264.4067  94.5786 14.11790677211403

Track FENGYUN 1C DEB in real time with AllMySat

Download on the App Store